This is the latest recevied weather packets stored in our database for station/object HI8S-13. If no packets are shown the sender has not sent any weather packets the latest 10 day(s).
| Time | Temp. | Humidity | Pressure | Rain* | Wind** | Luminosity | Snow |
|---|---|---|---|---|---|---|---|
| 1777397012 | 31.11° C | 64% | 1015.6 hPa | 0 mm | - | - | - |
| 1777396711 | 31.11° C | 65% | 1015.6 hPa | 0 mm | - | - | - |
| 1777396410 | 31.67° C | 64% | 1015.7 hPa | 0 mm | - | - | - |
| 1777396106 | 31.67° C | 63% | 1015.7 hPa | 0 mm | - | - | - |
| 1777395811 | 31.67° C | 62% | 1015.7 hPa | 0 mm | - | - | - |
| 1777395507 | 31.67° C | 61% | 1015.9 hPa | 0 mm | - | - | - |
| 1777395213 | 31.67° C | 63% | 1015.9 hPa | 0 mm | - | - | - |
| 1777394914 | 31.11° C | 64% | 1015.9 hPa | 0 mm | - | - | - |
| 1777394609 | 31.11° C | 65% | 1016 hPa | 0 mm | - | - | - |
| 1777394305 | 31.11° C | 64% | 1016 hPa | 0 mm | - | - | - |
| 1777394012 | 31.67° C | 63% | 1016 hPa | 0 mm | - | - | - |
| 1777393705 | 31.67° C | 64% | 1016.1 hPa | 0 mm | - | - | - |
| 1777393410 | 31.11° C | 67% | 1016.2 hPa | 0 mm | - | - | - |
| 1777393107 | 30.56° C | 68% | 1016.2 hPa | 0 mm | - | - | - |
| 1777392812 | 30° C | 68% | 1016.3 hPa | 0 mm | - | - | - |
| 1777392509 | 30° C | 69% | 1016.3 hPa | 0 mm | - | - | - |
| 1777392205 | 30° C | 69% | 1016.3 hPa | 0 mm | - | - | - |
| 1777391910 | 30° C | 72% | 1016.5 hPa | 0 mm | - | - | - |
| 1777391607 | 29.44° C | 72% | 1016.5 hPa | 0 mm | - | - | - |
| 1777391313 | 29.44° C | 70% | 1016.5 hPa | 0 mm | - | - | - |
| 1777391008 | 30° C | 71% | 1016.5 hPa | 0 mm | - | - | - |
| 1777390710 | 29.44° C | 73% | 1016.5 hPa | 0 mm | - | - | - |
| 1777390414 | 28.89° C | 76% | 1016.6 hPa | 0 mm | - | - | - |
| 1777390110 | 28.33° C | 77% | 1016.5 hPa | 0 mm | - | - | - |
| 1777389808 | 28.33° C | 78% | 1016.6 hPa | 0 mm | - | - | - |
* Rain latest hour (hover to see other rain measurements)
** Current wind speed in m/s (hover to see current wind gust speed)